JASON 2 (OSTM)

Last updated on Thu Jun 22 2017 00:17:33 GMT+0000 (Coordinated Universal Time)

1 33105U 08032A 17172.58997441 -.00000078 00000-0 -72119-4 0 9991 2 33105 66.0415 112.4867 0008264 270.5596 133.8655 12.80930400421105
UTC large
Height (km)
Speed (km/s)
/
Latitude / Longitude
Inclination (degrees)
Orbital Period (minutes)
Azimuth
Elevation
Range (km)
Doppler Factor

Next 0 passes for location: London (51.5072 / 0.1276)

Sorry there are no passes over London.
JASON 2 (OSTM)